Effective Sunday, March 17, 2024, the National Weather Service National Data Buoy Center will discontinue its Dial-A-Buoy Interactive Voice Response system. For more information, see Service Change Notice 24-06 (PDF).

Station FRXM3 - 8447412 - Fall River Visibility, MA Image indicating link to RSS feed of recent meteorological observations for station FRXM3


Conditions at FRXM3 as of
(12:18 am EST)
0518 GMT on 02/23/2024:
     

Click on the graph icon in the table below to see a time series plot of the last five days of that observation.

5-day plot - Air Temperature Air Temperature (ATMP): 38.7 °F
5-day plot - Dew Point Dew Point (DEWP): 35.8 °F
5-day plot - Visibility Visibility (VIS): 5.9 nmi
NOS Water Level Observation Network Water Level
Previous observations
TIME
(EST)
5-day plot - Wind Direction
WDIR
 
5-day plot - Wind Speed
WSPD
kts
5-day plot - Wind Gust
GST
kts
5-day plot - Wave Height
WVHT
ft
5-day plot - Dominant Wave Period
DPD
sec
5-day plot - Average Wave Period
APD
sec
5-day plot - Mean Wave Direction
MWD
 
5-day plot - Atmospheric Pressure
PRES
in
5-day plot - Pressure Tendency
PTDY
in
5-day plot - Air Temperature
ATMP
°F
5-day plot - Water Temperature
WTMP
°F
5-day plot - Dew Point
DEWP
°F
5-day plot - Salinity
SAL
psu
5-day plot - Visibility
VIS
nmi
5-day plot - Tide (above MLLW)
TIDE
ft
2024-02-23 12:12 am--------- 38.5- 35.6- 5.9-
2024-02-23 12:06 am--------- 38.5- 35.6- 5.9-
2024-02-23 12:00 am--------- 38.5- 35.8- 5.9-
2024-02-22 11:54 pm--------- 38.5- 35.8- 5.9-
2024-02-22 11:48 pm--------- 38.5- 35.6- 5.9-
2024-02-22 11:42 pm--------- 38.5- 35.6- 5.9-
2024-02-22 11:36 pm--------- 38.5- 35.2- 5.9-
2024-02-22 11:30 pm--------- 38.8- 35.4- 5.9-
2024-02-22 11:24 pm--------- 38.8- 35.2- 5.9-
2024-02-22 11:18 pm--------- 38.8- 35.2- 5.9-
2024-02-22 11:12 pm--------- 38.8- 35.2- 5.9-
2024-02-22 11:06 pm--------- 38.7- 35.1- 5.9-
2024-02-22 11:00 pm--------- 38.7- 35.1- 5.9-
2024-02-22 10:54 pm--------- 38.5- 34.9- 5.9-
2024-02-22 10:48 pm--------- 38.5- 34.9- 5.9-
2024-02-22 10:42 pm--------- 38.3- 34.9- 5.9-
2024-02-22 10:36 pm--------- 38.3- 34.9- 5.9-
2024-02-22 10:30 pm--------- 38.1- 34.7- 5.9-
2024-02-22 10:24 pm--------- 38.1- 34.7- 5.9-
2024-02-22 10:18 pm--------- 37.9- 34.7- 5.9-
2024-02-22 10:12 pm--------- 37.9- 34.7- 5.9-
2024-02-22 10:06 pm--------- 37.8- 34.5- 5.9-
2024-02-22 10:00 pm--------- 37.8- 34.5- 5.9-
2024-02-22 09:54 pm--------- 37.8- 34.7- 5.9-
2024-02-22 09:48 pm--------- 37.8- 34.7- 5.9-
2024-02-22 09:42 pm--------- 37.6- 34.5- 5.9-
2024-02-22 09:36 pm--------- 37.4- 34.3- 5.9-
2024-02-22 09:30 pm--------- 37.4- 34.3- 5.9-
2024-02-22 09:24 pm--------- 37.4- 34.2- 5.9-
2024-02-22 09:18 pm--------- 37.4- 34.2- 5.9-
2024-02-22 09:12 pm--------- 37.4- 34.0- 5.9-
2024-02-22 09:06 pm--------- 37.4- 33.8- 5.9-
2024-02-22 09:00 pm--------- 37.6- 33.8- 5.9-
2024-02-22 08:54 pm--------- 37.6- 33.6- 5.9-
2024-02-22 08:48 pm--------- 37.6- 33.3- 5.9-
2024-02-22 08:42 pm--------- 37.6- 33.1- 5.9-
2024-02-22 08:36 pm--------- 37.4- 32.5- 5.9-
2024-02-22 08:30 pm--------- 37.4- 32.5- 5.9-
2024-02-22 08:24 pm--------- 37.4- 32.5- 5.9-
2024-02-22 08:18 pm--------- 37.2- 32.4- 5.9-
2024-02-22 08:12 pm--------- 37.0- 32.2- 5.9-
2024-02-22 08:06 pm--------- 37.0- 32.2- 5.9-
2024-02-22 08:00 pm--------- 37.2- 32.4- 5.9-
2024-02-22 07:54 pm--------- 37.0- 32.2- 5.9-
2024-02-22 07:48 pm--------- 37.2- 32.5- 5.9-
2024-02-22 07:42 pm--------- 37.0- 32.2- 5.9-
2024-02-22 07:36 pm--------- 37.0- 32.2- 5.9-
2024-02-22 07:30 pm--------- 37.0- 32.2- 5.9-
2024-02-22 07:24 pm--------- 37.0- 32.2- 5.9-
2024-02-22 07:18 pm--------- 37.0- 32.0- 5.9-
2024-02-22 07:12 pm--------- 36.9- 31.8- 5.9-
2024-02-22 07:06 pm--------- 36.7- 31.6- 5.9-
2024-02-22 07:00 pm--------- 36.9- 31.8- 5.9-
2024-02-22 06:54 pm--------- 36.9- 31.6- 5.9-
2024-02-22 06:48 pm--------- 36.9- 31.5- 5.9-
2024-02-22 06:42 pm--------- 37.0- 31.8- 5.9-
2024-02-22 06:36 pm--------- 36.9- 31.5- 5.9-
2024-02-22 05:48 pm--------- 36.7- 30.6- 5.9-
2024-02-22 05:42 pm--------- 36.7- 30.4- 5.9-
2024-02-22 05:36 pm--------- 36.7- 30.2- 5.9-
2024-02-22 05:30 pm--------- 36.7- 30.2- 5.9-
2024-02-22 05:24 pm--------- 36.7- 30.0- 5.9-
2024-02-22 05:18 pm--------- 36.7- 30.0- 5.9-
2024-02-22 05:12 pm--------- 36.7- 29.8- 5.9-
2024-02-22 05:06 pm--------- 36.7- 29.8- 5.9-
2024-02-22 05:00 pm--------- 36.7- 29.7- 5.9-
2024-02-22 04:54 pm--------- 36.9- 29.8- 5.9-
2024-02-22 04:48 pm--------- 36.9- 29.7- 5.9-
2024-02-22 04:42 pm--------- 37.0- 29.5- 5.9-
2024-02-22 04:36 pm--------- 37.4- 29.7- 5.9-
2024-02-22 04:30 pm--------- 37.4- 29.5- 5.9-
2024-02-22 04:24 pm--------- 37.4- 29.3- 5.9-
2024-02-22 04:18 pm--------- 37.6- 29.3- 5.9-
2024-02-22 04:12 pm--------- 37.8- 29.1- 5.9-
2024-02-22 04:06 pm--------- 38.3- 29.1- 5.9-
2024-02-22 04:00 pm--------- 38.5- 29.1- 5.9-
2024-02-22 03:54 pm--------- 38.7- 28.9- 5.9-
2024-02-22 03:48 pm--------- 39.0- 28.8- 5.9-
2024-02-22 03:42 pm--------- 38.8- 28.8- 5.9-
2024-02-22 03:36 pm--------- 38.7- 28.4- 5.9-
2024-02-22 03:30 pm--------- 39.2- 29.3- 5.9-
2024-02-22 03:24 pm--------- 39.0- 28.8- 5.9-
2024-02-22 03:18 pm--------- 38.8- 28.4- 5.9-
2024-02-22 03:12 pm--------- 38.7- 28.0- 5.9-
2024-02-22 03:06 pm--------- 39.2- 28.4- 5.9-
2024-02-22 03:00 pm--------- 38.7- 28.2- 5.9-
2024-02-22 02:54 pm--------- 39.0- 28.2- 5.9-
2024-02-22 02:48 pm--------- 38.5- 27.7- 5.9-
2024-02-22 02:42 pm--------- 38.5- 27.7- 5.9-
2024-02-22 02:36 pm--------- 38.5- 27.3- 5.9-
2024-02-22 02:30 pm--------- 39.0- 27.9- 5.9-
2024-02-22 02:24 pm--------- 39.0- 28.2- 5.9-
2024-02-22 02:18 pm--------- 39.2- 27.7- 5.9-
2024-02-22 02:12 pm--------- 39.0- 28.2- 5.9-
2024-02-22 02:06 pm--------- 38.5- 27.0- 5.9-
2024-02-22 02:00 pm--------- 39.0- 27.9- 5.9-
2024-02-22 01:54 pm--------- 38.8- 27.5- 5.9-
2024-02-22 01:48 pm--------- 38.5- 28.2- 5.9-
2024-02-22 01:42 pm--------- 38.7- 28.2- 5.9-
2024-02-22 01:36 pm--------- 38.1- 28.0- 5.9-
2024-02-22 01:30 pm--------- 38.1- 28.4- 5.9-
2024-02-22 01:24 pm--------- 38.1- 28.2- 5.9-
2024-02-22 01:18 pm--------- 38.1- 28.4- 5.9-
2024-02-22 01:12 pm--------- 37.4- 28.0- 5.9-
2024-02-22 01:06 pm--------- 37.9- 27.5- 5.9-
2024-02-22 01:00 pm--------- 37.8- 27.5- 5.9-
2024-02-22 12:54 pm--------- 37.4- 27.7- 5.9-
2024-02-22 12:48 pm--------- 37.2- 27.7- 5.9-
2024-02-22 12:42 pm--------- 37.0- 27.9- 5.9-
2024-02-22 12:36 pm--------- 36.9- 27.1- 5.9-
2024-02-22 12:30 pm--------- 36.7- 27.3- 5.9-
2024-02-22 12:24 pm--------- 36.5- 26.8- 5.9-
2024-02-22 12:18 pm--------- 36.3- 27.0- 5.9-
2024-02-22 12:12 pm--------- 35.8- 26.4- 5.9-
2024-02-22 12:06 pm--------- 36.3- 27.3- 5.9-
2024-02-22 12:00 pm--------- 35.4- 26.2- 5.9-
2024-02-22 11:54 am--------- 35.4- 26.1- 5.9-
2024-02-22 11:48 am--------- 35.6- 25.9- 5.9-
2024-02-22 11:42 am--------- 35.4- 25.9- 5.9-
2024-02-22 11:36 am--------- 35.2- 26.2- 5.9-
2024-02-22 11:30 am--------- 35.1- 26.2- 5.9-
2024-02-22 11:24 am--------- 34.7- 26.4- 5.9-
2024-02-22 11:18 am--------- 34.7- 26.6- 5.9-
2024-02-22 11:12 am--------- 34.7- 26.2- 5.9-
2024-02-22 11:06 am--------- 34.2- 25.7- 5.9-
2024-02-22 11:00 am--------- 33.8- 26.1- 5.9-
2024-02-22 10:54 am--------- 33.4- 25.3- 5.9-
2024-02-22 10:30 am--------- 33.1- 25.5- 5.9-
2024-02-22 10:24 am--------- 32.9- 25.7- 5.9-
2024-02-22 10:18 am--------- 32.7- 26.2- 5.9-
2024-02-22 10:12 am--------- 32.2- 26.4- 5.9-
2024-02-22 10:06 am--------- 32.0- 27.3- 5.9-
2024-02-22 10:00 am--------- 31.8- 27.5- 5.9-
2024-02-22 09:54 am--------- 31.3- 27.5- 5.9-
2024-02-22 09:48 am--------- 30.9- 27.3- 5.9-
2024-02-22 09:42 am--------- 30.6- 27.1- 5.9-
2024-02-22 09:36 am--------- 30.4- 27.3- 5.9-
2024-02-22 09:30 am--------- 30.0- 27.1- 5.9-
2024-02-22 09:24 am--------- 29.5- 26.8- 5.9-
2024-02-22 09:18 am--------- 29.1- 26.2- 5.9-
2024-02-22 09:12 am--------- 29.1- 26.2- 5.9-
2024-02-22 09:06 am--------- 28.9- 26.1- 5.9-
2024-02-22 09:00 am--------- 28.9- 26.1- 5.9-
2024-02-22 08:54 am--------- 28.8- 25.9- 5.9-
2024-02-22 08:48 am--------- 28.6- 25.7- 5.9-
2024-02-22 08:42 am--------- 28.2- 25.3- 5.9-
2024-02-22 08:36 am--------- 28.2- 25.5- 5.9-
2024-02-22 08:30 am--------- 27.9- 25.2- 5.9-
2024-02-22 08:24 am--------- 27.9- 25.2- 5.9-
2024-02-22 08:18 am--------- 27.9- 25.2- 5.9-
2024-02-22 08:12 am--------- 27.7- 25.2- 5.9-
2024-02-22 08:06 am--------- 27.5- 25.0- 5.9-
2024-02-22 08:00 am--------- 27.5- 25.0- 5.9-
2024-02-22 07:54 am--------- 27.3- 24.8- 5.9-
2024-02-22 07:48 am--------- 27.7- 25.2- 5.9-
2024-02-22 07:42 am--------- 27.3- 24.8- 5.9-
2024-02-22 07:36 am--------- 27.1- 24.8- 5.9-
2024-02-22 07:30 am--------- 26.2- 24.1- 5.9-
2024-02-22 07:24 am--------- 26.4- 24.3- 5.9-
2024-02-22 07:18 am--------- 25.9- 23.7- 5.9-
2024-02-22 07:12 am--------- 25.5- 23.5- 5.9-
2024-02-22 07:06 am--------- 24.4- 22.5- 5.9-
2024-02-22 07:00 am--------- 23.7- 21.7- 5.9-
2024-02-22 06:54 am--------- 23.5- 21.6- 5.9-
2024-02-22 06:48 am--------- 23.7- 21.7- 5.9-
2024-02-22 06:42 am--------- 23.9- 21.9- 5.9-
2024-02-22 06:36 am--------- 23.7- 21.7- 5.9-
2024-02-22 06:30 am--------- 23.5- 21.6- 5.9-
2024-02-22 06:24 am--------- 23.5- 21.6- 5.9-
2024-02-22 06:18 am--------- 23.7- 21.7- 5.9-
2024-02-22 06:12 am--------- 23.4- 21.4- 5.9-
2024-02-22 06:06 am--------- 23.7- 21.9- 5.9-
2024-02-22 05:48 am--------- 23.9- 22.1- 5.9-
2024-02-22 05:42 am--------- 23.9- 22.1- 5.9-
2024-02-22 05:36 am--------- 23.7- 21.7- 5.9-
2024-02-22 05:30 am--------- 23.4- 21.4- 5.9-
2024-02-22 05:24 am--------- 23.4- 21.4- 5.9-
2024-02-22 05:18 am--------- 23.5- 21.6- 5.9-
2024-02-22 05:12 am--------- 23.7- 21.7- 5.9-
2024-02-22 05:06 am--------- 23.7- 21.7- 5.9-
2024-02-22 05:00 am--------- 23.9- 21.7- 5.9-
2024-02-22 04:54 am--------- 23.9- 21.7- 5.9-
2024-02-22 04:48 am--------- 24.1- 21.9- 5.9-
2024-02-22 04:42 am--------- 24.1- 21.9- 5.9-
2024-02-22 04:36 am--------- 23.7- 21.6- 5.9-
2024-02-22 04:30 am--------- 23.9- 21.6- 5.9-
2024-02-22 04:24 am--------- 23.9- 21.6- 5.9-
2024-02-22 04:18 am--------- 24.3- 22.1- 5.9-
2024-02-22 04:12 am--------- 24.3- 22.1- 5.9-
2024-02-22 04:06 am--------- 24.1- 21.7- 5.9-
2024-02-22 04:00 am--------- 24.3- 21.9- 5.9-
2024-02-22 03:54 am--------- 24.3- 21.9- 5.9-
2024-02-22 03:48 am--------- 24.8- 22.5- 5.9-
2024-02-22 03:42 am--------- 25.3- 23.0- 5.9-
2024-02-22 03:36 am--------- 25.3- 22.8- 5.9-
2024-02-22 03:30 am--------- 25.7- 23.2- 5.9-
2024-02-22 03:24 am--------- 25.9- 23.4- 5.9-
2024-02-22 03:18 am--------- 25.9- 23.2- 5.9-
2024-02-22 03:12 am--------- 25.3- 22.3- 5.9-
2024-02-22 03:06 am--------- 25.5- 22.5- 5.9-
2024-02-22 03:00 am--------- 25.9- 22.6- 5.9-
2024-02-22 02:54 am--------- 25.9- 22.6- 5.9-
2024-02-22 02:48 am--------- 25.5- 22.1- 5.9-
2024-02-22 02:42 am--------- 26.4- 23.0- 5.9-
2024-02-22 02:36 am--------- 26.2- 22.8- 5.9-
2024-02-22 02:30 am--------- 26.2- 22.8- 5.9-
2024-02-22 02:24 am--------- 26.2- 22.8- 5.9-
2024-02-22 02:18 am--------- 26.4- 23.0- 5.9-
2024-02-22 02:12 am--------- 26.4- 23.0- 5.9-
2024-02-22 02:06 am--------- 26.6- 23.2- 5.9-
2024-02-22 02:00 am--------- 26.6- 23.2- 5.9-
2024-02-22 01:54 am--------- 26.6- 23.2- 5.9-
2024-02-22 01:48 am--------- 26.6- 23.2- 5.9-
2024-02-22 01:42 am--------- 26.4- 22.8- 5.9-
2024-02-22 01:36 am--------- 26.2- 22.5- 5.9-
2024-02-22 01:30 am--------- 26.2- 22.3- 5.9-
2024-02-22 01:24 am--------- 26.6- 22.5- 5.9-
2024-02-22 01:18 am--------- 27.5- 23.5- 5.9-
2024-02-22 01:12 am--------- 27.5- 23.4- 5.9-
2024-02-22 01:06 am--------- 27.3- 22.8- 5.9-
2024-02-22 01:00 am--------- 27.9- 23.4- 5.9-
2024-02-22 12:54 am--------- 27.7- 22.8- 5.9-
2024-02-22 12:48 am--------- 27.9- 23.0- 5.9-
2024-02-22 12:42 am--------- 27.7- 22.6- 5.9-
2024-02-22 12:36 am--------- 27.9- 22.6- 5.9-
2024-02-22 12:30 am--------- 28.2- 22.8- 5.9-
2024-02-22 12:24 am--------- 28.0- 22.5- 5.9-
2024-02-22 12:18 am--------- 28.2- 22.5- 5.9-
2024-02-22 12:12 am--------- 27.7- 21.9- 5.9-
2024-02-22 12:06 am--------- 27.5- 21.6- 5.9-
2024-02-22 12:00 am--------- 27.5- 21.4- 5.9-
2024-02-21 11:54 pm--------- 28.0- 21.6- 5.9-